Simultaneous Nadir Overpasses (SNOs) Predictions

Prediction of SNOs between GOES-14 and NOAA-20 Satellite Orbit:

Table of predicted SNOs for the next 14.0 days since TLE Epoch: 5/4/2024
Index Date Time (GOES-14) GOES-14 Lat,Lon NOAA-20 Lat,Lon Distance(km) Time Diff (sec)
1 05/04/2024 20:31:25 -0.17,-108.65 0.36,-106.29 269.73 80
2 05/06/2024 08:53:11 0.15,-108.66 0.78,-111.56 330.58 80
3 05/07/2024 08:31:45 0.16,-108.66 -0.22,-107.02 186.77 80
4 05/08/2024 20:53:39 -0.14,-108.67 -0.94,-112.33 416.45 80
5 05/09/2024 20:37:33 -0.15,-108.67 0.06,-107.79 101.26 80
6 05/11/2024 08:56:38 0.13,-108.68 1.13,-113.05 498.56 80
7 05/12/2024 08:37:52 0.14,-108.68 0.13,-108.51 18.97 80
8 05/14/2024 20:40:59 -0.14,-108.69 -0.27,-109.28 67.14 80
9 05/15/2024 20:24:53 -0.15,-108.70 0.74,-104.74 451.00 80
10 05/17/2024 08:43:58 0.13,-108.71 0.45,-110.01 147.91 80
